owner,sensor,date,latitude,longitude,vertical_datum,wind_speed,wind_to_direction,wind_speed_of_gust,qcFlag 
COMPS,ioos:station:USF.COMPS:C10:1,2016-12-01T00:05:00Z,27.1690,-82.9260,3.0,5.17,167.94,6.52,'1111122,1111122,1111122' 
COMPS,ioos:station:USF.COMPS:C10:1,2016-12-01T00:35:00Z,27.1690,-82.9260,3.0,4.32,172.91,5.19,'1111122,1111122,1111122' 
COMPS,ioos:station:USF.COMPS:C10:1,2016-12-01T01:05:00Z,27.1690,-82.9260,3.0,4.75,172.75,5.86,'1111122,1111122,1111122' 
COMPS,ioos:station:USF.COMPS:C10:1,2016-12-01T01:35:00Z,27.1690,-82.9260,3.0,4.5,174.73,5.48,'1111122,1111122,1111122' 
COMPS,ioos:station:USF.COMPS:C10:1,2016-12-01T02:05:00Z,27.1690,-82.9260,3.0,3.96,176.92,4.77,'1111122,1111122,1111122' 
COMPS,ioos:station:USF.COMPS:C10:1,2016-12-01T02:35:00Z,27.1690,-82.9260,3.0,4.23,172.59,5.18,'1111122,1111122,1111122' 
COMPS,ioos:station:USF.COMPS:C10:1,2016-12-01T03:05:00Z,27.1690,-82.9260,3.0,4.65,176.58,5.86,'1111122,1111122,1111122' 
COMPS,ioos:station:USF.COMPS:C10:1,2016-12-01T03:35:00Z,27.1690,-82.9260,3.0,4.27,182.57,5.37,'1111122,1111122,1111122' 
COMPS,ioos:station:USF.COMPS:C10:1,2016-12-01T04:05:00Z,27.1690,-82.9260,3.0,3.91,180.86,4.69,'1111122,1111122,1111122' 
COMPS,ioos:station:USF.COMPS:C10:1,2016-12-01T04:35:00Z,27.1690,-82.9260,3.0,3.23,178.84,4.41,'1111122,1111122,1111122' 
COMPS,ioos:station:USF.COMPS:C10:1,2016-12-01T05:05:00Z,27.1690,-82.9260,3.0,4.51,177.78,5.84,'1111122,1111122,1111122' 
COMPS,ioos:station:USF.COMPS:C10:1,2016-12-01T05:35:00Z,27.1690,-82.9260,3.0,3.97,180.61,4.99,'1111122,1111122,1111122' 
COMPS,ioos:station:USF.COMPS:C10:1,2016-12-01T06:05:00Z,27.1690,-82.9260,3.0,3.42,178.9,4.23,'1111122,1111122,1111122' 
COMPS,ioos:station:USF.COMPS:C10:1,2016-12-01T06:35:00Z,27.1690,-82.9260,3.0,4.22,176.5,5.15,'1111122,1111122,1111122' 
COMPS,ioos:station:USF.COMPS:C10:1,2016-12-01T07:05:00Z,27.1690,-82.9260,3.0,3.92,186.45,5.25,'1111122,1111122,1111122' 
COMPS,ioos:station:USF.COMPS:C10:1,2016-12-01T07:35:00Z,27.1690,-82.9260,3.0,2.97,192.52,4.0,'1111122,1111122,1111122' 
COMPS,ioos:station:USF.COMPS:C10:1,2016-12-01T08:05:00Z,27.1690,-82.9260,3.0,2.06,192.74,2.65,'1111122,1111122,1111122' 
COMPS,ioos:station:USF.COMPS:C10:1,2016-12-01T08:35:00Z,27.1690,-82.9260,3.0,2.26,180.82,2.69,'1111122,1111122,1111122' 
COMPS,ioos:station:USF.COMPS:C10:1,2016-12-01T09:05:00Z,27.1690,-82.9260,3.0,2.47,160.23,3.14,'1111122,1111122,1111122' 
COMPS,ioos:station:USF.COMPS:C10:1,2016-12-01T09:35:00Z,27.1690,-82.9260,3.0,0.6,175.78,2.02,'1111122,1111122,1111122' 
COMPS,ioos:station:USF.COMPS:C10:1,2016-12-01T10:05:00Z,27.1690,-82.9260,3.0,1.55,127.82,2.09,'1111122,1111122,1111122' 
COMPS,ioos:station:USF.COMPS:C10:1,2016-12-01T10:35:00Z,27.1690,-82.9260,3.0,1.75,152.13,2.55,'1111122,1111122,1111122' 
COMPS,ioos:station:USF.COMPS:C10:1,2016-12-01T11:05:00Z,27.1690,-82.9260,3.0,2.58,157.95,3.93,'1111122,1111122,1111122' 
COMPS,ioos:station:USF.COMPS:C10:1,2016-12-01T11:35:00Z,27.1690,-82.9260,3.0,4.43,170.12,6.3,'1111122,1111122,1111122' 
COMPS,ioos:station:USF.COMPS:C10:1,2016-12-01T12:05:00Z,27.1690,-82.9260,3.0,3.02,153.11,4.09,'1111122,1111122,1111122' 
COMPS,ioos:station:USF.COMPS:C10:1,2016-12-01T12:35:00Z,27.1690,-82.9260,3.0,3.82,154.76,4.71,'1111122,1111122,1111122' 
COMPS,ioos:station:USF.COMPS:C10:1,2016-12-01T13:05:00Z,27.1690,-82.9260,3.0,4.93,158.46,6.15,'1111122,1111122,1111122' 
COMPS,ioos:station:USF.COMPS:C10:1,2016-12-01T13:35:00Z,27.1690,-82.9260,3.0,5.91,167.1,7.12,'1111122,1111122,1111122' 
COMPS,ioos:station:USF.COMPS:C10:1,2016-12-01T14:05:00Z,27.1690,-82.9260,3.0,5.05,183.01,6.83,'1111122,1111122,1111122' 
COMPS,ioos:station:USF.COMPS:C10:1,2016-12-01T14:35:00Z,27.1690,-82.9260,3.0,4.34,215.49,5.52,'1111122,1111122,1111122' 
COMPS,ioos:station:USF.COMPS:C10:1,2016-12-01T15:05:00Z,27.1690,-82.9260,3.0,3.6,199.16,4.75,'1111122,1111122,1111122' 
COMPS,ioos:station:USF.COMPS:C10:1,2016-12-01T15:35:00Z,27.1690,-82.9260,3.0,2.97,231.96,3.7,'1111122,1111122,1111122' 
COMPS,ioos:station:USF.COMPS:C10:1,2016-12-01T16:05:00Z,27.1690,-82.9260,3.0,2.21,245.7,2.98,'1111122,1111122,1111122' 
COMPS,ioos:station:USF.COMPS:C10:1,2016-12-01T16:35:00Z,27.1690,-82.9260,3.0,2.53,223.66,3.52,'1111122,1111122,1111122' 
COMPS,ioos:station:USF.COMPS:C10:1,2016-12-01T17:05:00Z,27.1690,-82.9260,3.0,2.39,209.01,3.31,'1111122,1111122,1111122' 
COMPS,ioos:station:USF.COMPS:C10:1,2016-12-01T17:35:00Z,27.1690,-82.9260,3.0,1.94,218.46,2.58,'1111122,1111122,1111122' 
COMPS,ioos:station:USF.COMPS:C10:1,2016-12-01T18:05:00Z,27.1690,-82.9260,3.0,1.91,221.94,2.6,'1111122,1111122,1111122' 
COMPS,ioos:station:USF.COMPS:C10:1,2016-12-01T18:35:00Z,27.1690,-82.9260,3.0,1.84,228.96,2.29,'1111122,1111122,1111122' 
COMPS,ioos:station:USF.COMPS:C10:1,2016-12-01T19:05:00Z,27.1690,-82.9260,3.0,3.2,175.83,3.91,'1111122,1111122,1111122' 
COMPS,ioos:station:USF.COMPS:C10:1,2016-12-01T19:35:00Z,27.1690,-82.9260,3.0,2.18,180.05,2.7,'1111122,1111122,1111122' 
COMPS,ioos:station:USF.COMPS:C10:1,2016-12-01T20:05:00Z,27.1690,-82.9260,3.0,5.72,346.28,8.8,'1111122,1111122,1111122' 
COMPS,ioos:station:USF.COMPS:C10:1,2016-12-01T20:35:00Z,27.1690,-82.9260,3.0,5.92,6.09,7.03,'1111122,1111122,1111122' 
COMPS,ioos:station:USF.COMPS:C10:1,2016-12-01T22:05:00Z,27.1690,-82.9260,3.0,5.9,9.07,6.98,'1111122,1111122,1111122' 
COMPS,ioos:station:USF.COMPS:C10:1,2016-12-01T22:35:00Z,27.1690,-82.9260,3.0,6.9,355.72,8.3,'1111122,1111122,1111122' 
COMPS,ioos:station:USF.COMPS:C10:1,2016-12-02T01:05:00Z,27.1690,-82.9260,3.0,6.1,358.58,7.52,'1111122,1111122,1111122' 
COMPS,ioos:station:USF.COMPS:C10:1,2016-12-02T01:35:00Z,27.1690,-82.9260,3.0,6.96,356.66,8.31,'1111122,1111122,1111122' 
COMPS,ioos:station:USF.COMPS:C10:1,2016-12-02T03:05:00Z,27.1690,-82.9260,3.0,7.48,8.98,9.15,'1111122,1111122,1111122' 
COMPS,ioos:station:USF.COMPS:C10:1,2016-12-02T03:35:00Z,27.1690,-82.9260,3.0,7.05,12.59,8.55,'1111122,1111122,1111122' 
COMPS,ioos:station:USF.COMPS:C10:1,2016-12-02T04:05:00Z,27.1690,-82.9260,3.0,6.97,16.36,8.29,'1111122,1111122,1111122' 
COMPS,ioos:station:USF.COMPS:C10:1,2016-12-02T04:35:00Z,27.1690,-82.9260,3.0,7.41,17.9,8.91,'1111122,1111122,1111122' 
COMPS,ioos:station:USF.COMPS:C10:1,2016-12-02T05:05:00Z,27.1690,-82.9260,3.0,6.68,22.1,8.09,'1111122,1111122,1111122' 
COMPS,ioos:station:USF.COMPS:C10:1,2016-12-02T05:35:00Z,27.1690,-82.9260,3.0,7.21,20.32,8.44,'1111122,1111122,1111122' 
COMPS,ioos:station:USF.COMPS:C10:1,2016-12-02T17:05:00Z,27.1690,-82.9260,3.0,7.1,41.28,8.51,'1111122,1111122,1111122' 
COMPS,ioos:station:USF.COMPS:C10:1,2016-12-02T17:35:00Z,27.1690,-82.9260,3.0,6.44,31.01,8.2,'1111122,1111122,1111122' 
COMPS,ioos:station:USF.COMPS:C10:1,2016-12-02T19:05:00Z,27.1690,-82.9260,3.0,6.21,26.91,8.21,'1111122,1111122,1111122' 
COMPS,ioos:station:USF.COMPS:C10:1,2016-12-02T19:35:00Z,27.1690,-82.9260,3.0,6.67,20.73,8.2,'1111122,1111122,1111122' 
COMPS,ioos:station:USF.COMPS:C10:1,2016-12-02T21:05:00Z,27.1690,-82.9260,3.0,7.14,21.65,8.84,'1111122,1111122,1111122' 
COMPS,ioos:station:USF.COMPS:C10:1,2016-12-02T21:35:00Z,27.1690,-82.9260,3.0,7.13,25.65,8.59,'1111122,1111122,1111122' 
COMPS,ioos:station:USF.COMPS:C10:1,2016-12-03T06:05:00Z,27.1690,-82.9260,3.0,10.14,61.47,12.21,'1111122,1111122,1111122' 
COMPS,ioos:station:USF.COMPS:C10:1,2016-12-03T06:35:00Z,27.1690,-82.9260,3.0,9.61,64.03,11.57,'1111122,1111122,1111122' 
COMPS,ioos:station:USF.COMPS:C10:1,2016-12-03T07:05:00Z,27.1690,-82.9260,3.0,9.68,69.18,12.65,'1111122,1111122,1111122' 
COMPS,ioos:station:USF.COMPS:C10:1,2016-12-03T07:35:00Z,27.1690,-82.9260,3.0,9.87,66.5,12.44,'1111122,1111122,1111122' 
COMPS,ioos:station:USF.COMPS:C10:1,2016-12-03T10:05:00Z,27.1690,-82.9260,3.0,10.1,69.17,12.49,'1111122,1111122,1111122' 
COMPS,ioos:station:USF.COMPS:C10:1,2016-12-03T10:35:00Z,27.1690,-82.9260,3.0,9.96,71.52,11.78,'1111122,1111122,1111122' 
COMPS,ioos:station:USF.COMPS:C10:1,2016-12-03T14:05:00Z,27.1690,-82.9260,3.0,8.68,66.74,10.81,'1111122,1111122,1111122' 
COMPS,ioos:station:USF.COMPS:C10:1,2016-12-03T14:35:00Z,27.1690,-82.9260,3.0,7.92,62.85,9.61,'1111122,1111122,1111122' 
COMPS,ioos:station:USF.COMPS:C10:1,2016-12-04T01:05:00Z,27.1690,-82.9260,3.0,7.35,84.08,9.42,'1111122,1111122,1111122' 
COMPS,ioos:station:USF.COMPS:C10:1,2016-12-04T01:35:00Z,27.1690,-82.9260,3.0,8.49,93.02,11.4,'1111122,1111122,1111122' 
COMPS,ioos:station:USF.COMPS:C10:1,2016-12-04T02:05:00Z,27.1690,-82.9260,3.0,7.62,94.91,9.39,'1111122,1111122,1111122' 
COMPS,ioos:station:USF.COMPS:C10:1,2016-12-04T02:35:00Z,27.1690,-82.9260,3.0,7.95,96.75,9.78,'1111122,1111122,1111122' 
COMPS,ioos:station:USF.COMPS:C10:1,2016-12-04T03:05:00Z,27.1690,-82.9260,3.0,8.74,100.25,10.53,'1111122,1111122,1111122' 
COMPS,ioos:station:USF.COMPS:C10:1,2016-12-04T03:35:00Z,27.1690,-82.9260,3.0,8.9,106.06,11.14,'1111122,1111122,1111122' 
COMPS,ioos:station:USF.COMPS:C10:1,2016-12-04T05:05:00Z,27.1690,-82.9260,3.0,8.99,106.97,10.77,'1111122,1111122,1111122' 
COMPS,ioos:station:USF.COMPS:C10:1,2016-12-04T05:35:00Z,27.1690,-82.9260,3.0,9.39,113.08,11.39,'1111122,1111122,1111122' 
COMPS,ioos:station:USF.COMPS:C10:1,2016-12-04T07:05:00Z,27.1690,-82.9260,3.0,8.7,102.67,10.24,'1111122,1111122,1111122' 
COMPS,ioos:station:USF.COMPS:C10:1,2016-12-04T07:35:00Z,27.1690,-82.9260,3.0,8.24,110.57,9.95,'1111122,1111122,1111122' 
COMPS,ioos:station:USF.COMPS:C10:1,2016-12-04T12:05:00Z,27.1690,-82.9260,3.0,8.61,114.35,11.11,'1111122,1111122,1111122' 
COMPS,ioos:station:USF.COMPS:C10:1,2016-12-04T12:35:00Z,27.1690,-82.9260,3.0,8.52,111.78,10.76,'1111122,1111122,1111122' 
COMPS,ioos:station:USF.COMPS:C10:1,2016-12-04T13:05:00Z,27.1690,-82.9260,3.0,8.52,112.83,10.14,'1111122,1111122,1111122' 
COMPS,ioos:station:USF.COMPS:C10:1,2016-12-04T13:35:00Z,27.1690,-82.9260,3.0,8.65,117.65,10.36,'1111122,1111122,1111122' 
COMPS,ioos:station:USF.COMPS:C10:1,2016-12-04T14:05:00Z,27.1690,-82.9260,3.0,8.34,121.45,10.04,'1111122,1111122,1111122' 
COMPS,ioos:station:USF.COMPS:C10:1,2016-12-04T14:35:00Z,27.1690,-82.9260,3.0,8.09,126.44,9.8,'1111122,1111122,1111122' 
COMPS,ioos:station:USF.COMPS:C10:1,2016-12-04T15:05:00Z,27.1690,-82.9260,3.0,8.07,129.6,10.41,'1111122,1111122,1111122' 
COMPS,ioos:station:USF.COMPS:C10:1,2016-12-04T15:35:00Z,27.1690,-82.9260,3.0,8.02,132.59,9.66,'1111122,1111122,1111122' 
COMPS,ioos:station:USF.COMPS:C10:1,2016-12-04T16:05:00Z,27.1690,-82.9260,3.0,6.89,131.89,8.6,'1111122,1111122,1111122' 
COMPS,ioos:station:USF.COMPS:C10:1,2016-12-04T16:35:00Z,27.1690,-82.9260,3.0,7.06,138.16,8.25,'1111122,1111122,1111122' 
COMPS,ioos:station:USF.COMPS:C10:1,2016-12-04T17:05:00Z,27.1690,-82.9260,3.0,6.38,133.83,7.78,'1111122,1111122,1111122' 
COMPS,ioos:station:USF.COMPS:C10:1,2016-12-04T17:35:00Z,27.1690,-82.9260,3.0,6.17,132.9,7.27,'1111122,1111122,1111122' 
COMPS,ioos:station:USF.COMPS:C10:1,2016-12-04T18:05:00Z,27.1690,-82.9260,3.0,5.68,131.98,6.67,'1111122,1111122,1111122' 
COMPS,ioos:station:USF.COMPS:C10:1,2016-12-04T18:35:00Z,27.1690,-82.9260,3.0,4.79,126.14,5.92,'1111122,1111122,1111122' 
COMPS,ioos:station:USF.COMPS:C10:1,2016-12-04T19:05:00Z,27.1690,-82.9260,3.0,5.4,137.02,6.55,'1111122,1111122,1111122' 
COMPS,ioos:station:USF.COMPS:C10:1,2016-12-04T19:35:00Z,27.1690,-82.9260,3.0,4.96,147.59,5.93,'1111122,1111122,1111122' 
COMPS,ioos:station:USF.COMPS:C10:1,2016-12-04T20:05:00Z,27.1690,-82.9260,3.0,4.43,154.85,5.44,'1111122,1111122,1111122' 
COMPS,ioos:station:USF.COMPS:C10:1,2016-12-04T20:35:00Z,27.1690,-82.9260,3.0,3.55,150.41,4.19,'1111122,1111122,1111122' 
COMPS,ioos:station:USF.COMPS:C10:1,2016-12-04T21:05:00Z,27.1690,-82.9260,3.0,3.18,159.68,3.87,'1111122,1111122,1111122' 
COMPS,ioos:station:USF.COMPS:C10:1,2016-12-04T21:35:00Z,27.1690,-82.9260,3.0,3.15,169.15,3.81,'1111122,1111122,1111122' 
COMPS,ioos:station:USF.COMPS:C10:1,2016-12-04T22:05:00Z,27.1690,-82.9260,3.0,2.7,173.87,3.28,'1111122,1111122,1111122' 
COMPS,ioos:station:USF.COMPS:C10:1,2016-12-04T22:35:00Z,27.1690,-82.9260,3.0,2.38,173.79,3.01,'1111122,1111122,1111122' 
COMPS,ioos:station:USF.COMPS:C10:1,2016-12-04T23:05:00Z,27.1690,-82.9260,3.0,1.98,158.04,2.45,'1111122,1111122,1111122' 
COMPS,ioos:station:USF.COMPS:C10:1,2016-12-04T23:35:00Z,27.1690,-82.9260,3.0,2.41,160.72,2.93,'1111122,1111122,1111122' 
COMPS,ioos:station:USF.COMPS:C10:1,2016-12-05T00:05:00Z,27.1690,-82.9260,3.0,3.02,162.26,3.95,'1111122,1111122,1111122' 
COMPS,ioos:station:USF.COMPS:C10:1,2016-12-05T00:35:00Z,27.1690,-82.9260,3.0,3.55,164.75,4.32,'1111122,1111122,1111122' 
COMPS,ioos:station:USF.COMPS:C10:1,2016-12-05T01:05:00Z,27.1690,-82.9260,3.0,3.17,165.76,4.07,'1111122,1111122,1111122' 
COMPS,ioos:station:USF.COMPS:C10:1,2016-12-05T01:35:00Z,27.1690,-82.9260,3.0,4.09,174.62,5.0,'1111122,1111122,1111122' 
COMPS,ioos:station:USF.COMPS:C10:1,2016-12-05T02:05:00Z,27.1690,-82.9260,3.0,5.04,171.86,5.93,'1111122,1111122,1111122' 
COMPS,ioos:station:USF.COMPS:C10:1,2016-12-05T02:35:00Z,27.1690,-82.9260,3.0,4.9,170.32,6.32,'1111122,1111122,1111122' 
COMPS,ioos:station:USF.COMPS:C10:1,2016-12-05T03:05:00Z,27.1690,-82.9260,3.0,5.49,172.4,6.56,'1111122,1111122,1111122' 
COMPS,ioos:station:USF.COMPS:C10:1,2016-12-05T03:35:00Z,27.1690,-82.9260,3.0,5.76,166.54,6.91,'1111122,1111122,1111122' 
COMPS,ioos:station:USF.COMPS:C10:1,2016-12-05T04:05:00Z,27.1690,-82.9260,3.0,5.51,165.8,6.83,'1111122,1111122,1111122' 
COMPS,ioos:station:USF.COMPS:C10:1,2016-12-05T04:35:00Z,27.1690,-82.9260,3.0,5.43,164.54,6.56,'1111122,1111122,1111122' 
COMPS,ioos:station:USF.COMPS:C10:1,2016-12-05T05:05:00Z,27.1690,-82.9260,3.0,6.12,158.05,7.41,'1111122,1111122,1111122' 
COMPS,ioos:station:USF.COMPS:C10:1,2016-12-05T05:35:00Z,27.1690,-82.9260,3.0,5.75,155.32,7.39,'1111122,1111122,1111122' 
COMPS,ioos:station:USF.COMPS:C10:1,2016-12-05T06:05:00Z,27.1690,-82.9260,3.0,5.45,152.35,6.84,'1111122,1111122,1111122' 
COMPS,ioos:station:USF.COMPS:C10:1,2016-12-05T06:35:00Z,27.1690,-82.9260,3.0,5.62,151.66,6.99,'1111122,1111122,1111122' 
COMPS,ioos:station:USF.COMPS:C10:1,2016-12-05T07:05:00Z,27.1690,-82.9260,3.0,6.14,153.28,7.41,'1111122,1111122,1111122' 
COMPS,ioos:station:USF.COMPS:C10:1,2016-12-05T07:35:00Z,27.1690,-82.9260,3.0,4.44,145.25,6.08,'1111122,1111122,1111122' 
COMPS,ioos:station:USF.COMPS:C10:1,2016-12-05T08:05:00Z,27.1690,-82.9260,3.0,4.06,139.06,4.98,'1111122,1111122,1111122' 
COMPS,ioos:station:USF.COMPS:C10:1,2016-12-05T08:35:00Z,27.1690,-82.9260,3.0,3.27,112.5,4.1,'1111122,1111122,1111122' 
COMPS,ioos:station:USF.COMPS:C10:1,2016-12-05T09:05:00Z,27.1690,-82.9260,3.0,4.36,110.8,5.45,'1111122,1111122,1111122' 
COMPS,ioos:station:USF.COMPS:C10:1,2016-12-05T09:35:00Z,27.1690,-82.9260,3.0,4.28,118.53,5.31,'1111122,1111122,1111122' 
COMPS,ioos:station:USF.COMPS:C10:1,2016-12-05T10:05:00Z,27.1690,-82.9260,3.0,4.93,121.93,6.06,'1111122,1111122,1111122' 
COMPS,ioos:station:USF.COMPS:C10:1,2016-12-05T10:35:00Z,27.1690,-82.9260,3.0,5.52,122.52,6.8,'1111122,1111122,1111122' 
COMPS,ioos:station:USF.COMPS:C10:1,2016-12-05T11:05:00Z,27.1690,-82.9260,3.0,6.54,126.16,8.24,'1111122,1111122,1111122' 
COMPS,ioos:station:USF.COMPS:C10:1,2016-12-05T11:35:00Z,27.1690,-82.9260,3.0,6.2,132.2,7.71,'1111122,1111122,1111122' 
COMPS,ioos:station:USF.COMPS:C10:1,2016-12-05T12:05:00Z,27.1690,-82.9260,3.0,7.63,132.37,9.29,'1111122,1111122,1111122' 
COMPS,ioos:station:USF.COMPS:C10:1,2016-12-05T12:35:00Z,27.1690,-82.9260,3.0,7.85,133.61,9.42,'1111122,1111122,1111122' 
COMPS,ioos:station:USF.COMPS:C10:1,2016-12-05T13:05:00Z,27.1690,-82.9260,3.0,8.04,146.13,9.53,'1111122,1111122,1111122' 
COMPS,ioos:station:USF.COMPS:C10:1,2016-12-05T13:35:00Z,27.1690,-82.9260,3.0,7.89,152.15,9.27,'1111122,1111122,1111122' 
COMPS,ioos:station:USF.COMPS:C10:1,2016-12-05T14:05:00Z,27.1690,-82.9260,3.0,7.5,153.67,8.8,'1111122,1111122,1111122' 
COMPS,ioos:station:USF.COMPS:C10:1,2016-12-05T14:35:00Z,27.1690,-82.9260,3.0,7.56,154.84,9.08,'1111122,1111122,1111122' 
COMPS,ioos:station:USF.COMPS:C10:1,2016-12-05T15:05:00Z,27.1690,-82.9260,3.0,7.33,156.78,8.65,'1111122,1111122,1111122' 
COMPS,ioos:station:USF.COMPS:C10:1,2016-12-05T15:35:00Z,27.1690,-82.9260,3.0,6.82,155.52,8.16,'1111122,1111122,1111122' 
COMPS,ioos:station:USF.COMPS:C10:1,2016-12-05T16:05:00Z,27.1690,-82.9260,3.0,7.03,155.04,8.32,'1111122,1111122,1111122' 
COMPS,ioos:station:USF.COMPS:C10:1,2016-12-05T16:35:00Z,27.1690,-82.9260,3.0,7.07,154.78,8.94,'1111122,1111122,1111122' 
COMPS,ioos:station:USF.COMPS:C10:1,2016-12-05T17:05:00Z,27.1690,-82.9260,3.0,7.61,157.76,9.23,'1111122,1111122,1111122' 
COMPS,ioos:station:USF.COMPS:C10:1,2016-12-05T17:35:00Z,27.1690,-82.9260,3.0,7.15,154.52,8.61,'1111122,1111122,1111122' 
COMPS,ioos:station:USF.COMPS:C10:1,2016-12-05T18:05:00Z,27.1690,-82.9260,3.0,7.08,156.6,8.52,'1111122,1111122,1111122' 
COMPS,ioos:station:USF.COMPS:C10:1,2016-12-05T18:35:00Z,27.1690,-82.9260,3.0,6.22,156.74,7.51,'1111122,1111122,1111122' 
COMPS,ioos:station:USF.COMPS:C10:1,2016-12-05T19:05:00Z,27.1690,-82.9260,3.0,6.36,158.23,7.7,'1111122,1111122,1111122' 
COMPS,ioos:station:USF.COMPS:C10:1,2016-12-05T19:35:00Z,27.1690,-82.9260,3.0,7.16,154.59,8.59,'1111122,1111122,1111122' 
COMPS,ioos:station:USF.COMPS:C10:1,2016-12-05T20:05:00Z,27.1690,-82.9260,3.0,7.54,156.07,9.12,'1111122,1111122,1111122' 
COMPS,ioos:station:USF.COMPS:C10:1,2016-12-05T20:35:00Z,27.1690,-82.9260,3.0,7.55,156.26,9.15,'1111122,1111122,1111122' 
COMPS,ioos:station:USF.COMPS:C10:1,2016-12-05T21:05:00Z,27.1690,-82.9260,3.0,7.62,162.66,9.07,'1111122,1111122,1111122' 
COMPS,ioos:station:USF.COMPS:C10:1,2016-12-05T21:35:00Z,27.1690,-82.9260,3.0,7.57,161.57,8.86,'1111122,1111122,1111122' 
COMPS,ioos:station:USF.COMPS:C10:1,2016-12-05T22:05:00Z,27.1690,-82.9260,3.0,8.51,163.91,10.15,'1111122,1111122,1111122' 
COMPS,ioos:station:USF.COMPS:C10:1,2016-12-05T22:35:00Z,27.1690,-82.9260,3.0,7.88,162.96,9.67,'1111122,1111122,1111122' 
COMPS,ioos:station:USF.COMPS:C10:1,2016-12-05T23:05:00Z,27.1690,-82.9260,3.0,7.69,164.65,9.04,'1111122,1111122,1111122' 
COMPS,ioos:station:USF.COMPS:C10:1,2016-12-05T23:35:00Z,27.1690,-82.9260,3.0,7.82,163.33,9.35,'1111122,1111122,1111122' 
COMPS,ioos:station:USF.COMPS:C10:1,2016-12-06T00:05:00Z,27.1690,-82.9260,3.0,7.48,164.62,8.88,'1111122,1111122,1111122' 
COMPS,ioos:station:USF.COMPS:C10:1,2016-12-06T00:35:00Z,27.1690,-82.9260,3.0,7.47,165.97,9.14,'1111122,1111122,1111122' 
COMPS,ioos:station:USF.COMPS:C10:1,2016-12-06T01:05:00Z,27.1690,-82.9260,3.0,7.26,170.81,8.73,'1111122,1111122,1111122' 
COMPS,ioos:station:USF.COMPS:C10:1,2016-12-06T01:35:00Z,27.1690,-82.9260,3.0,7.52,172.12,8.88,'1111122,1111122,1111122' 
COMPS,ioos:station:USF.COMPS:C10:1,2016-12-06T02:05:00Z,27.1690,-82.9260,3.0,7.18,169.86,8.54,'1111122,1111122,1111122' 
COMPS,ioos:station:USF.COMPS:C10:1,2016-12-06T02:35:00Z,27.1690,-82.9260,3.0,7.98,168.47,9.41,'1111122,1111122,1111122' 
COMPS,ioos:station:USF.COMPS:C10:1,2016-12-06T03:05:00Z,27.1690,-82.9260,3.0,7.54,161.54,8.76,'1111122,1111122,1111122' 
COMPS,ioos:station:USF.COMPS:C10:1,2016-12-06T03:35:00Z,27.1690,-82.9260,3.0,7.17,164.01,8.42,'1111122,1111122,1111122' 
COMPS,ioos:station:USF.COMPS:C10:1,2016-12-06T04:05:00Z,27.1690,-82.9260,3.0,7.86,174.32,9.2,'1111122,1111122,1111122' 
COMPS,ioos:station:USF.COMPS:C10:1,2016-12-06T04:35:00Z,27.1690,-82.9260,3.0,8.37,166.58,10.59,'1111122,1111122,1111122' 
COMPS,ioos:station:USF.COMPS:C10:1,2016-12-06T05:05:00Z,27.1690,-82.9260,3.0,8.17,167.47,9.67,'1111122,1111122,1111122' 
COMPS,ioos:station:USF.COMPS:C10:1,2016-12-06T05:35:00Z,27.1690,-82.9260,3.0,8.72,164.13,10.58,'1111122,1111122,1111122' 
COMPS,ioos:station:USF.COMPS:C10:1,2016-12-06T06:05:00Z,27.1690,-82.9260,3.0,8.63,169.13,10.35,'1111122,1111122,1111122' 
COMPS,ioos:station:USF.COMPS:C10:1,2016-12-06T06:35:00Z,27.1690,-82.9260,3.0,7.93,177.75,9.43,'1111122,1111122,1111122' 
COMPS,ioos:station:USF.COMPS:C10:1,2016-12-06T07:05:00Z,27.1690,-82.9260,3.0,7.46,180.98,9.16,'1111122,1111122,1111122' 
COMPS,ioos:station:USF.COMPS:C10:1,2016-12-06T07:35:00Z,27.1690,-82.9260,3.0,7.51,179.88,8.86,'1111122,1111122,1111122' 
COMPS,ioos:station:USF.COMPS:C10:1,2016-12-06T08:05:00Z,27.1690,-82.9260,3.0,8.04,175.33,9.56,'1111122,1111122,1111122' 
COMPS,ioos:station:USF.COMPS:C10:1,2016-12-06T08:35:00Z,27.1690,-82.9260,3.0,8.12,179.27,9.91,'1111122,1111122,1111122' 
COMPS,ioos:station:USF.COMPS:C10:1,2016-12-06T09:05:00Z,27.1690,-82.9260,3.0,7.49,184.97,9.09,'1111122,1111122,1111122' 
COMPS,ioos:station:USF.COMPS:C10:1,2016-12-06T09:35:00Z,27.1690,-82.9260,3.0,7.5,187.13,9.61,'1111122,1111122,1111122' 
COMPS,ioos:station:USF.COMPS:C10:1,2016-12-06T10:05:00Z,27.1690,-82.9260,3.0,7.25,183.32,8.67,'1111122,1111122,1111122' 
COMPS,ioos:station:USF.COMPS:C10:1,2016-12-06T10:35:00Z,27.1690,-82.9260,3.0,6.83,185.71,8.16,'1111122,1111122,1111122' 
COMPS,ioos:station:USF.COMPS:C10:1,2016-12-06T11:05:00Z,27.1690,-82.9260,3.0,7.9,182.12,9.89,'1111122,1111122,1111122' 
COMPS,ioos:station:USF.COMPS:C10:1,2016-12-06T11:35:00Z,27.1690,-82.9260,3.0,6.99,189.61,8.6,'1111122,1111122,1111122' 
COMPS,ioos:station:USF.COMPS:C10:1,2016-12-06T12:05:00Z,27.1690,-82.9260,3.0,7.11,192.17,8.56,'1111122,1111122,1111122' 
COMPS,ioos:station:USF.COMPS:C10:1,2016-12-06T12:35:00Z,27.1690,-82.9260,3.0,7.11,188.56,8.92,'1111122,1111122,1111122' 
COMPS,ioos:station:USF.COMPS:C10:1,2016-12-06T13:05:00Z,27.1690,-82.9260,3.0,7.77,191.43,9.04,'1111122,1111122,1111122' 
COMPS,ioos:station:USF.COMPS:C10:1,2016-12-06T13:35:00Z,27.1690,-82.9260,3.0,7.32,191.66,9.23,'1111122,1111122,1111122' 
COMPS,ioos:station:USF.COMPS:C10:1,2016-12-06T14:05:00Z,27.1690,-82.9260,3.0,7.96,194.31,9.49,'1111122,1111122,1111122' 
COMPS,ioos:station:USF.COMPS:C10:1,2016-12-06T14:35:00Z,27.1690,-82.9260,3.0,7.49,190.76,9.15,'1111122,1111122,1111122' 
COMPS,ioos:station:USF.COMPS:C10:1,2016-12-06T15:05:00Z,27.1690,-82.9260,3.0,7.12,195.09,8.69,'1111122,1111122,1111122' 
COMPS,ioos:station:USF.COMPS:C10:1,2016-12-06T15:35:00Z,27.1690,-82.9260,3.0,7.21,194.86,8.69,'1111122,1111122,1111122' 
COMPS,ioos:station:USF.COMPS:C10:1,2016-12-06T16:05:00Z,27.1690,-82.9260,3.0,7.36,197.4,9.13,'1111122,1111122,1111122' 
COMPS,ioos:station:USF.COMPS:C10:1,2016-12-06T16:35:00Z,27.1690,-82.9260,3.0,6.61,199.61,8.19,'1111122,1111122,1111122' 
COMPS,ioos:station:USF.COMPS:C10:1,2016-12-06T17:05:00Z,27.1690,-82.9260,3.0,5.15,229.48,10.63,'1111122,1111122,1111122' 
COMPS,ioos:station:USF.COMPS:C10:1,2016-12-06T17:35:00Z,27.1690,-82.9260,3.0,7.34,203.07,8.75,'1111122,1111122,1111122' 
COMPS,ioos:station:USF.COMPS:C10:1,2016-12-06T18:05:00Z,27.1690,-82.9260,3.0,7.1,217.43,8.75,'1111122,1111122,1111122' 
COMPS,ioos:station:USF.COMPS:C10:1,2016-12-06T18:35:00Z,27.1690,-82.9260,3.0,7.1,248.92,9.41,'1111122,1111122,1111122' 
COMPS,ioos:station:USF.COMPS:C10:1,2016-12-06T19:05:00Z,27.1690,-82.9260,3.0,5.92,238.26,7.52,'1111122,1111122,1111122' 
COMPS,ioos:station:USF.COMPS:C10:1,2016-12-06T19:35:00Z,27.1690,-82.9260,3.0,4.5,236.71,5.42,'1111122,1111122,1111122' 
COMPS,ioos:station:USF.COMPS:C10:1,2016-12-06T20:05:00Z,27.1690,-82.9260,3.0,4.5,222.78,5.83,'1111122,1111122,1111122' 
COMPS,ioos:station:USF.COMPS:C10:1,2016-12-06T20:35:00Z,27.1690,-82.9260,3.0,5.19,232.01,6.36,'1111122,1111122,1111122' 
COMPS,ioos:station:USF.COMPS:C10:1,2016-12-06T21:05:00Z,27.1690,-82.9260,3.0,5.35,248.12,6.63,'1111122,1111122,1111122' 
COMPS,ioos:station:USF.COMPS:C10:1,2016-12-06T21:35:00Z,27.1690,-82.9260,3.0,4.61,272.17,5.67,'1111122,1111122,1111122' 
COMPS,ioos:station:USF.COMPS:C10:1,2016-12-06T22:05:00Z,27.1690,-82.9260,3.0,3.26,222.16,4.25,'1111122,1111122,1111122' 
COMPS,ioos:station:USF.COMPS:C10:1,2016-12-06T22:35:00Z,27.1690,-82.9260,3.0,2.69,238.33,4.84,'1111122,1111122,1111122' 
COMPS,ioos:station:USF.COMPS:C10:1,2016-12-06T23:05:00Z,27.1690,-82.9260,3.0,2.92,274.16,4.23,'1111122,1111122,1111122' 
COMPS,ioos:station:USF.COMPS:C10:1,2016-12-06T23:35:00Z,27.1690,-82.9260,3.0,2.45,302.46,3.34,'1111122,1111122,1111122' 
COMPS,ioos:station:USF.COMPS:C10:1,2016-12-07T00:05:00Z,27.1690,-82.9260,3.0,1.56,307.91,2.35,'1111122,1111122,1111122' 